USA 164 (MILSTAR-2 3)

Last updated on Sun Dec 07 2025 00:02:45 GMT+0000 (Coordinated Universal Time)

1 27168U 02001A 25340.28774219 .00000098 00000+0 00000+0 0 9996 2 27168 10.9504 23.0391 0096538 2.6639 172.2147 1.00267064 31026
UTC large
Height (km)
Speed (km/s)
/
Latitude / Longitude
Inclination (degrees)
Orbital Period (minutes)
Azimuth
Elevation
Range (km)
Doppler Factor

Next 0 passes for location: London (51.5072 / 0.1276)

Sorry there are no passes over London.